Regional Weather Roundup
Issued by NWS

Home | Current Version | Previous Version | Text Only | Print | Product List | Glossary On
Versions: 1 2 3 4 5 6 7 8 9 10 11 12 13 14 15 16 17 18 19 20 21 22 23 24 25 26 27
000
ASUS42 KTBW 110216
RWRFL
FLORIDA REGIONAL WEATHER ROUNDUP
NATIONAL WEATHER SERVICE TAMPA BAY RUSKIN FL
900 PM EST SUN DEC 10 2017

NOTE: "FAIR" INDICATES FEW OR NO CLOUDS BELOW 12,000 FEET WITH NO
SIGNIFICANT WEATHER AND/OR OBSTRUCTIONS TO VISIBILITY.

FLZ001>010-012>015-112-114-115-110300-
PANHANDLE FLORIDA

CITY           SKY/WX    TMP DP  RH WIND       PRES   REMARKS
PENSACOLA      CLEAR     45  33  63 CALM      30.33F
PENSACOLA NAS  CLEAR     37  34  89 CALM      30.33F
MILTON NAS     CLEAR     38  32  79 W6        30.33S WCI  33
CRESTVIEW      CLEAR     33  31  92 CALM      30.34S
DUKE FIELD     FAIR      37  31  78 SW5       30.33R WCI  33
VALPARAISO     CLEAR     40  32  75 W6        30.33S WCI  35
MARY ESTHER    CLEAR     46  35  66 NW8       30.32S WCI  42
PANAMA CITY    FAIR      36  33  89 CALM      30.33S
TYNDALL AFB    CLEAR     37  33  85 CALM      30.34R
APALACHICOLA   CLEAR     37  35  92 CALM      30.33R

STATION/POSITION SKY/WX   TEMP    WIND        PRES    WAVE   SWELL
                          AIR SEA DIR/SP/G            HT/PER HT/PER
                          (F)     (DEG/KT/KT) (MB)    (FT/S) (FT/S)
29.2N   88.2W              59 74  270/ 10/ 12 1027.9
28.8N   86.0W              59 75  300/ 10/ 14 1027.1R   2/ 5   2/ 5
PANAMA CITY BEAC           49 62  320/  8/  9 1027.5R
TOWER C                    53     330/ 15/ 16 1027.5R

$$
FLZ011-016>038-118-127-128-134-139-239-110300-
NORTH FLORIDA

CITY           SKY/WX    TMP DP  RH WIND       PRES   REMARKS
MARIANNA       CLEAR     38  32  79 CALM      30.32S
TALLAHASSEE    CLEAR     34  31  88 W3        30.32R
PERRY          CLEAR     38  37  96 CALM      30.33R
LIVE OAK       CLEAR     36  36 100 CALM      30.32S
CROSS CITY     CLEAR     34  33  96 CALM      30.37R
LAKE CITY      FAIR      36  32  87 W3        30.31R
GAINESVILLE    CLEAR     36  33  89 W6        30.33R WCI  31
WILLISTON      CLEAR     39  37  93 CALM      30.32R
PALATKA        FAIR      36  36 100 CALM      30.31R
MAYPORT NAS    CLEAR     41  36  82 W3        30.29S
JACKSONVILLE   CLEAR     39  35  86 CALM      30.29R
JAX NAS        CLEAR     45  35  68 W6        30.30S WCI  42
JAX CECIL      CLEAR     34  34 100 CALM      30.30R
ST AUGUSTINE   CLEAR     39  36  89 W3        30.31R
PALM COAST     FAIR      39  38  93 CALM      30.30S

STATION/POSITION SKY/WX   TEMP    WIND        PRES    WAVE   SWELL
                          AIR SEA DIR/SP/G            HT/PER HT/PER
                          (F)     (DEG/KT/KT) (MB)    (FT/S) (FT/S)
SHELL POINT      NOT AVBL
KEATON BEACH               50     330/  2/  5 1026.2R
CEDAR KEY                  47     360/  3/  4 1026.8R
FERNANDINA                 44 56  190/  2/  3 1026.5R
30.7N   81.3W                 60                N/A     2/11
MAYPORT                    49 60  260/  3/  4 1025.9R
31.4N   80.9W              51 61  260/ 14/ 16 1024.8F   2/ 9   2/ 9
ST AUGUSTINE               46 62  280/  6/  6 1026.2R

$$
FLZ040-043>046-052-053-057-058-063-144-110300-
INTERIOR CENTRAL FLORIDA

CITY           SKY/WX    TMP DP  RH WIND       PRES   REMARKS
OCALA          CLEAR     39  35  86 CALM      30.32R
LEESBURG       CLEAR     48  38  68 NW5       30.32R
SANFORD        CLEAR     43  35  73 CALM      30.30R
ORLANDO EXEC   CLEAR     47  35  63 W8        30.30R WCI  43
ORLANDO INTL   CLEAR     43  32  65 NW6       30.31S WCI  39
KISSIMMEE      CLEAR     45  37  73 W5        30.32R WCI  43
WINTER HAVEN   CLEAR     46  32  58 NW6       30.33R WCI  43
LAKELAND       CLEAR     43  28  56 NW5       30.32S WCI  40
BARTOW         FAIR      46  32  57 N5        30.32S WCI  44
SEBRING        FAIR      47  38  72 CALM      30.31S

$$
FLZ041-047-054-059-064-141-147-110300-
EAST CENTRAL FLORIDA

CITY           SKY/WX    TMP DP  RH WIND       PRES   REMARKS
DAYTONA BEACH  CLEAR     42  39  89 CALM      30.30S
DELAND         CLEAR     41  37  87 CALM      30.30R
NEW SMYRNA BEA PTCLDY    39  37  93 CALM      30.32R
JFK SPACE CTR  CLEAR     40  39  97 NW6       30.29R WCI  36
TITUSVILLE     CLEAR     43  39  87 NW6       30.31R WCI  39
CAPE CANAVERAL CLEAR     38  33  80 CALM      30.29R
PATRICK AFB    CLEAR     52  36  56 W9        30.30R
MELBOURNE      CLEAR     47  37  68 CALM      30.30R
VERO BEACH     CLEAR     43  41  93 W6        30.31R WCI  39
FT PIERCE      CLEAR     41  41 100 W3        30.30R

STATION/POSITION SKY/WX   TEMP    WIND        PRES    WAVE   SWELL
                          AIR SEA DIR/SP/G            HT/PER HT/PER
                          (F)     (DEG/KT/KT) (MB)    (FT/S) (FT/S)
28.5N   80.2W              58 78  320/ 10/ 16 1025.7R   4/ 8   3/ 8
TRIDENT PIER                      350/  2/  4   N/A
28.4N   80.5W                 70                N/A     1/ 8
27.5N   80.2W                 72                N/A     4/ 8

$$
FLZ050-056-061-142-242-148-248-149-249-151-251-155-255-
160-260-110300-
WEST CENTRAL FLORIDA

CITY           SKY/WX    TMP DP  RH WIND       PRES   REMARKS
CRYSTAL RIVER  FAIR      36  34  93 CALM      30.32R
INVERNESS      FAIR      36  36 100 CALM      30.32S
BROOKSVILLE    CLEAR     35  32  88 CALM      30.33R
CLEARWATER AIR FAIR      45  37  76 CALM      30.32R
ST PETE CLEARW CLEAR     52  42  69 N5        30.33R
TAMPA INTL     CLEAR     50  37  61 CALM      30.33R
TAMPA EXEC     CLEAR     37  36  93 CALM      30.34R
PLANT CITY     CLEAR     41  36  81 CALM      30.34R
MACDILL AFB    CLEAR     42  35  76 E5        30.32R WCI  40
PETER O KNIGHT   N/A     46  37  71 CALM      30.33R
ST PETERSBURG  CLEAR     53  42  66 N3        30.31R
SARASOTA       CLEAR     47  40  76 CALM      30.31R
VENICE         FAIR     N/A N/A N/A N6        30.33S

STATION/POSITION SKY/WX   TEMP    WIND        PRES    WAVE   SWELL
                          AIR SEA DIR/SP/G            HT/PER HT/PER
                          (F)     (DEG/KT/KT) (MB)    (FT/S) (FT/S)
27.3N   84.2W                 75                N/A     5/ 8
CLEARWATER BEACH                  340/ 10/ 12   N/A
MIDDLE TAMPA BAY           54      10/  8/ 12 1026.7R
VENICE                     51 69   30/  6/  7 1026.9R

$$
FLZ066-069-070-075>078-162-262-165-265-110300-
SOUTHWEST FLORIDA AND KEYS

CITY           SKY/WX    TMP DP  RH WIND       PRES   REMARKS
PUNTA GORDA    CLEAR     49  37  63 N9        30.34R WCI  45
FT MYERS       CLEAR     52  40  63 N5        30.32R
SOUTHWEST INTL CLEAR     49  42  77 N3        30.32R
NAPLES         CLEAR     50  42  74 CALM      30.31R
MARCO ISLAND   CLEAR     53  40  61 N5        30.33R
IMMOKALEE      FAIR      41  39  93 CALM      30.32S
MARATHON       CLEAR     58  41  53 N13G18    30.29R
KEY WEST NAS   PTCLDY    60  49  66 N14       30.29
KEY WEST INTL  CLEAR     60  47  61 N12G18    30.29R

STATION/POSITION SKY/WX   TEMP    WIND        PRES    WAVE   SWELL
                          AIR SEA DIR/SP/G            HT/PER HT/PER
                          (F)     (DEG/KT/KT) (MB)    (FT/S) (FT/S)
NAPLES                        70   60/  3/  4 1026.4R
DRY TORTUGAS               65      10/ 18/ 20 1025.8R
SAND KEY                   61                 1026.0R
MOLASSES REEF              57 77  350/ 20/ 22 1025.0R

$$
FLZ067-068-071>074-168-172>174-110300-
SOUTHEAST FLORIDA

CITY           SKY/WX    TMP DP  RH WIND       PRES   REMARKS
W PALM BEACH   PTCLDY    50  39  66 NW9       30.29R
BOCA RATON     PTCLDY   N/A N/A N/A N8        30.28S
FT LAUDER-EXEC CLEAR     52  45  77 NW5       30.28S
FT LAUDERDALE  PTCLDY    52  43  71 NW7       30.28R
POMPANO BEACH  CLEAR     54  45  71 NW12      30.28R
PEMBROKE PINES CLEAR     52  40  63 NW8       30.30R
OPA LOCKA      CLEAR     53  41  63 NW9       30.29R
MIAMI          CLEAR     56  41  57 NW5       30.29R
WEST KENDALL   CLEAR     50  41  71 NW8       30.29R
HOMESTEAD      CLEAR     51  44  76 NW10      30.28R

STATION/POSITION SKY/WX   TEMP    WIND        PRES    WAVE   SWELL
                          AIR SEA DIR/SP/G            HT/PER HT/PER
                          (F)     (DEG/KT/KT) (MB)    (FT/S) (FT/S)
PORT EVERGLADES            56     310/  9/ 11 1024.8R
VIRGINIA KEY                      300/  8/ 12   N/A
LAKE WORTH                 55 74  320/  9/ 12 1026.1S
FOWEY ROCKS                58 74  320/ 19/ 20 1025.5R
SETTLEMENT POINT           65      20/ 12/ 14 1023.7F

$$





USA.gov is the U.S. government's official web portal to all federal, state and local government web resources and services.